Regional Weather Roundup
Issued by NWS State College, PA

Current Version | Previous Version | Text Only | Print | Product List | Glossary On
Versions: 1 2 3 4 5 6 7 8 9 10 11 12 13 14 15 16 17 18 19 20 21 22 23 24 25 26 27 28 29 30 31 32 33 34 35 36 37 38 39 40 41 42 43 44 45 46 47 48 49 50
000
ASUS41 KCTP 271610
RWRCTP

REGIONAL WEATHER ROUNDUP
NATIONAL WEATHER SERVICE STATE COLLEGE PA
1200 PM EDT SUN MAY 27 2018

Note: "fair" indicates few or no clouds below 12,000 feet with no
significant weather and/or obstructions to visibility.

* = STATION THAT DOES NOT REPORT PRECIPITATION /E.G. RAIN...SNOW...ETC/
    THUNDER OR FOG.

PAZ002>004-007>009-013>016-020>023-029>032-271700-
WESTERN PENNSYLVANIA

CITY           SKY/WX    TMP DP  RH WIND       PRES   REMARKS
ERIE           FAIR      75  67  76 NW9       29.93S
MEADVILLE      FAIR      75  66  73 VRB3      29.97S
FRANKLIN*      PTSUNNY   73  66  78 S3        29.98S
NEW CASTLE     CLOUDY    75  70  84 E3        29.97S
BEAVER COUNTY  NOT AVBL
BUTLER*        CLOUDY    72  66  83 CALM      29.98S
PITTSBURGH INT CLOUDY    74  68  81 W6        29.96S
PITTSBURGH     CLOUDY    74  70  87 CALM      29.96S
INDIANA*       CLOUDY    72  68  88 SW3       30.01F FOG
LATROBE        CLOUDY    72  72 100 CALM      29.98S
WASHINGTON CO* CLOUDY    75  69  81 NW5       29.99S
$$

PAZ004>006-010>012-017>019-024>028-033>037-041-042-045-046-049>053-271700-
CENTRAL PENNSYLVANIA

CITY           SKY/WX    TMP DP  RH WIND       PRES   REMARKS
BRADFORD       FAIR      73  62  68 SE6       29.99F
DUBOIS         CLOUDY    71  66  84 S5        29.98F
CLEARFIELD     CLOUDY    69  65  86 E3        30.00S
JOHNSTOWN      CLOUDY    70  66  87 W6        30.01R
ALTOONA        LGT RAIN  71  67  87 N7        30.00S FOG
STATE COLLEGE  CLOUDY    68  66  94 CALM      29.99F FOG
WILLIAMSPORT   CLOUDY    70  65  84 E10       29.97S
SELINSGROVE    LGT RAIN  71  67  87 CALM      29.98S FOG
FT INDIANTOWN  CLOUDY    73  66  80 E9        29.98S
CAPITAL CITY   CLOUDY    77  66  68 NE12      29.96R
HARRISBURG     CLOUDY    77  68  73 NE7       29.95R
YORK           FAIR      79  71  76 NE12      29.95S
$$

PAZ038>040-043-044-047-048-054-055-060>062-067>071-271700-
EASTERN PENNSYLVANIA

CITY           SKY/WX    TMP DP  RH WIND       PRES   REMARKS
SCRANTON       CLOUDY    69  63  81 E5        30.00S
MOUNT POCONO   LGT RAIN  61  61 100 E12       30.04F
ALLENTOWN      CLOUDY    70  62  76 E14       30.00S
QUAKERTOWN*    CLOUDY    66  66 100 NE9       30.01R
READING        CLOUDY    72  66  81 VRB7      29.97S
LANCASTER      PTSUNNY   75  68  78 E15       29.96S
COATESVILLE    CLOUDY    68  66  94 NE9G20    29.99S
POTTSTOWN      CLOUDY    67  65  93 NE9       30.01R
BLUE BELL      CLOUDY    63  63 100 NE6       30.00S
DOYLESTOWN     CLOUDY    65  65 100 NE6       30.00R
WILLOW GROVE   NOT AVBL
NORTH PHILA    CLOUDY    68  64  87 NE17      30.00R
PHILADELPHIA   CLOUDY    69  65  86 NE9G22    29.97R
$$




USA.gov is the U.S. government's official web portal to all federal, state and local government web resources and services.